Location: Embree (historical)
(32.9240°N, 96.6283°W)
Time: 15:35:55
(UTC+00:00)

Daily predictions for brighter satellites

Satellite Brightness Start Highest point End
(mag) Time Altitude Azimuth Time Altitude Azimuth Time Altitude Azimuth
Meteor PRIRODA 4.1 12:03:54 10° NNE 12:07:29 62° E 12:11:05 10° S
CZ-4B R/B 3.4 12:04:50 10° NNE 12:08:20 54° E 12:11:55 10° S
H-2A R/B 4.2 12:05:14 10° SE 12:08:44 25° ENE 12:12:18 10° NNE
Meteor 2-19 Rocket 4.3 12:05:16 10° SSW 12:11:17 71° W 12:17:20 10° N
Cosmos 1812 3.9 12:12:01 21° WNW 12:12:30 22° W 12:15:28 10° SW
Cosmos 1151 Rocket 3.8 12:10:05 16° NW 12:12:51 30° W 12:16:39 10° SSW
Cosmos 1340 Rocket 2.7 12:09:26 10° S 12:13:21 88° E 12:17:21 10° N
SL-27 R/B 3.2 12:10:01 10° N 12:13:30 53° ENE 12:16:55 10° SSE
NOAA 11 4.1 12:10:20 10° N 12:15:49 76° WNW 12:21:17 10° SSW
Cosmos 783 Rocket 4.5 12:14:16 10° NNW 12:19:28 89° WSW 12:24:40 10° SSE
OAO 2 Rocket 4.0 12:15:15 10° SW 12:20:20 57° SSE 12:25:20 10° E
CZ-2C R/B 3.0 12:15:22 10° NNE 12:20:22 89° W 12:25:38 10° SSW
SL-8 R/B 4.4 12:16:55 13° NW 12:21:05 47° NE 12:25:40 10° ESE
ATLAS 5 CENTAUR R/B 2.2 12:20:01 10° WSW 12:23:10 26° NW 12:26:36 10° N
Cosmos 1777 Rocket 4.3 12:18:50 10° SW 12:23:47 45° WNW 12:28:47 10° N
H-2A R/B 4.5 12:22:51 10° NE 12:26:53 25° E 12:30:56 10° SSE
Cosmos 773 Rocket 3.9 12:28:09 10° NNW 12:33:21 74° WSW 12:38:28 10° S
CZ-4B R/B 4.1 12:30:57 10° ESE 12:33:22 19° ENE 12:35:46 10° NNE
BREEZE-M DEB 4.1 12:31:18 12° W 12:33:51 33° NNW 12:40:39 10° NE
USA 32 4.5 12:29:38 10° N 12:34:52 68° E 12:40:05 10° S
Meteor 1-27 Rocket 3.8 12:29:28 10° N 12:35:11 78° W 12:40:59 10° S
Cosmos 1939 Rocket 2.7 12:37:28 10° N 12:41:22 77° WNW 12:45:11 10° SSW
Alouette 2 Rocket 3.6 12:38:30 10° N 12:42:02 68° E 12:45:59 10° SSE
DMSP B5D2-2 4.1 12:37:42 10° S 12:42:54 75° WSW 12:48:07 10° NNW
COSMO-SKYMED 1 3.9 12:40:08 10° SW 12:43:25 21° W 12:46:43 10° NW
SL-4 R/B 1.9 12:41:53 10° WSW 12:45:15 48° NW 12:48:48 10° NE
NOAA 6 4.1 12:44:38 10° NNE 12:49:46 87° ESE 12:54:53 10° SSW
Cosmos 2026 Rocket 4.1 12:46:19 10° S 12:52:40 80° W 12:58:58 10° N
Cosmos 1634 Rocket 4.1 23:36:59 10° S 23:43:17 77° E 23:49:37 10° N
Cosmos 2084 3.8 23:39:09 10° NW 23:43:33 77° WSW 23:48:06 10° SSE
Cosmos 1500 Rocket 4.2 23:41:20 10° NNW 23:45:41 62° W 23:49:58 10° S
Cosmos 1937 Rocket 3.5 23:41:17 10° N 23:46:34 64° ENE 23:51:48 10° SSE
USA 276 2.3 23:44:25 10° NW 23:47:31 72° SW 23:50:37 10° SE
Cosmos 1900 4.3 23:43:39 10° SSW 23:48:30 78° ESE 23:53:23 10° NNE
Sich 1 3.1 23:45:34 10° N 23:49:49 58° E 23:54:04 10° SSE
USA 267 4.3 23:44:10 10° NNE 23:50:06 38° NW 23:56:00 10° WSW
Cosmos 372 Rocket 4.4 23:45:30 10° N 23:50:27 42° ENE 23:55:24 10° SE
DEBRIS 2.9 23:50:30 10° SSW 23:52:20 28° SE 23:55:03 10° ENE
Cosmos 2026 Rocket 3.9 23:46:40 10° N 23:52:45 69° E 23:58:44 10° SSE
APEX 4.2 23:50:46 10° S 23:54:37 31° ESE 23:57:50 10° NE
